This is the latest recevied weather packets stored in our database for station/object W3TMB. If no packets are shown the sender has not sent any weather packets the latest 10 day(s).
| Time | Temp. | Humidity | Pressure | Rain* | Wind** | Luminosity | Snow |
|---|---|---|---|---|---|---|---|
| 1777896669 | 6.67° C | 79% | 1010.3 hPa | 0 mm | - | 203 W/m² | - |
| 1777896366 | 7.22° C | 78% | 1010.6 hPa | 0 mm | - | 203 W/m² | - |
| 1777896064 | 6.67° C | 81% | 1010.6 hPa | 0 mm | - | 161 W/m² | - |
| 1777895762 | 6.11° C | 81% | 1010.8 hPa | 0 mm | - | 137 W/m² | - |
| 1777895459 | 6.11° C | 81% | 1010.9 hPa | 0 mm | - | 72 W/m² | - |
| 1777895157 | 5.56° C | 85% | 1010.8 hPa | 0 mm | - | 86 W/m² | - |
| 1777894854 | 5° C | 89% | 1010.6 hPa | 0 mm | - | 124 W/m² | - |
| 1777894550 | 4.44° C | 90% | 1010.8 hPa | 0 mm | - | 97 W/m² | - |
| 1777894248 | 4.44° C | 90% | 1010.9 hPa | 0 mm | - | 76 W/m² | - |
| 1777893945 | 4.44° C | 91% | 1010.8 hPa | 0 mm | - | 75 W/m² | - |
| 1777893641 | 4.44° C | 93% | 1010.8 hPa | 0 mm | - | 78 W/m² | - |
| 1777893338 | 4.44° C | 96% | 1010.7 hPa | 0 mm | - | 67 W/m² | - |
| 1777893033 | 3.89° C | 99% | 1010.7 hPa | 0 mm | - | 64 W/m² | - |
| 1777892732 | 2.78° C | 99% | 1010.8 hPa | 0 mm | - | 53 W/m² | - |
| 1777892427 | 3.33° C | 99% | 1010.8 hPa | 0 mm | - | 42 W/m² | - |
| 1777892123 | 1.67° C | 99% | 1010.5 hPa | 0 mm | - | 33 W/m² | - |
| 1777891820 | 1.11° C | 99% | 1010.7 hPa | 0 mm | - | 25 W/m² | - |
| 1777891517 | 1.11° C | 99% | 1010.4 hPa | 0 mm | - | 21 W/m² | - |
| 1777891214 | 1.11° C | 99% | 1010.7 hPa | 0 mm | - | 19 W/m² | - |
| 1777890908 | 1.11° C | 99% | 1010.5 hPa | 0 mm | - | 16 W/m² | - |
| 1777890603 | 1.11° C | 99% | 1010.6 hPa | 0 mm | - | 12 W/m² | - |
| 1777890299 | 0.56° C | 99% | 1010.7 hPa | 0 mm | - | 10 W/m² | - |
| 1777889995 | 0.56° C | 99% | 1010.7 hPa | 0 mm | - | 8 W/m² | - |
| 1777889693 | 0.56° C | 99% | 1010.4 hPa | 0 mm | - | 5 W/m² | - |
| 1777889390 | 0.56° C | 99% | 1010.6 hPa | 0 mm | - | 3 W/m² | - |
* Rain latest hour (hover to see other rain measurements)
** Current wind speed in m/s (hover to see current wind gust speed)